TimeEST,TemperatureF,Dew PointF,Humidity,Sea Level PressureIn,VisibilityMPH,Wind Direction,Wind SpeedMPH,Gust SpeedMPH,PrecipitationIn,Events,Conditions,WindDirDegrees,DateUTC
12:53 AM,55.9,54.0,93,30.05,9.0,Calm,Calm,-,N/A,,Mostly Cloudy,0,2013-01-02 05:53:00
1:53 AM,60.1,55.0,83,30.04,10.0,Calm,Calm,-,N/A,,Scattered Clouds,0,2013-01-02 06:53:00
2:53 AM,57.9,54.0,87,30.03,10.0,South,5.8,-,N/A,,Clear,190,2013-01-02 07:53:00
3:53 AM,57.9,54.0,87,30.04,10.0,Calm,Calm,-,N/A,,Clear,0,2013-01-02 08:53:00
4:53 AM,55.9,54.0,93,30.04,10.0,Calm,Calm,-,N/A,,Clear,0,2013-01-02 09:53:00
5:53 AM,54.0,52.0,93,30.04,8.0,Calm,Calm,-,N/A,,Clear,0,2013-01-02 10:53:00
6:53 AM,55.0,53.1,93,30.05,5.0,Calm,Calm,-,N/A,,Mostly Cloudy,0,2013-01-02 11:53:00
7:53 AM,57.9,55.9,93,30.06,7.0,SSE,3.5,-,N/A,,Mostly Cloudy,160,2013-01-02 12:53:00
8:33 AM,60.8,57.2,88,30.07,10.0,South,3.5,-,N/A,,Mostly Cloudy,190,2013-01-02 13:33:00
8:53 AM,63.0,57.9,84,30.07,10.0,South,4.6,-,N/A,,Mostly Cloudy,180,2013-01-02 13:53:00
9:00 AM,62.6,57.2,82,30.07,10.0,South,4.6,-,N/A,,Mostly Cloudy,190,2013-01-02 14:00:00
10:17 AM,71.6,62.6,73,30.08,10.0,SSW,9.2,-,N/A,,Scattered Clouds,200,2013-01-02 15:17:00
10:53 AM,73.0,63.0,71,30.06,10.0,WSW,13.8,20.7,N/A,,Partly Cloudy,240,2013-01-02 15:53:00
11:53 AM,75.9,62.1,62,30.04,10.0,SW,8.1,-,N/A,,Clear,220,2013-01-02 16:53:00
12:53 PM,78.1,60.1,54,30.01,10.0,SSW,11.5,-,N/A,,Scattered Clouds,200,2013-01-02 17:53:00
1:53 PM,77.0,60.1,56,29.99,10.0,WSW,10.4,-,N/A,,Overcast,240,2013-01-02 18:53:00
2:53 PM,79.0,60.1,52,29.99,10.0,West,6.9,-,N/A,,Scattered Clouds,260,2013-01-02 19:53:00
3:53 PM,78.1,60.1,54,30.00,10.0,West,6.9,-,N/A,,Overcast,260,2013-01-02 20:53:00
4:53 PM,77.0,60.1,56,30.00,10.0,WSW,3.5,-,N/A,,Overcast,250,2013-01-02 21:53:00
5:53 PM,75.0,61.0,62,30.01,10.0,Calm,Calm,-,N/A,,Partly Cloudy,0,2013-01-02 22:53:00
6:53 PM,69.1,61.0,75,30.03,10.0,Calm,Calm,-,N/A,,Scattered Clouds,0,2013-01-02 23:53:00
7:53 PM,70.0,62.1,76,30.05,10.0,NW,4.6,-,N/A,,Overcast,310,2013-01-03 00:53:00
8:53 PM,69.1,63.0,81,30.06,10.0,NW,4.6,-,N/A,,Overcast,310,2013-01-03 01:53:00
9:53 PM,68.0,63.0,84,30.07,10.0,NW,3.5,-,N/A,,Overcast,310,2013-01-03 02:53:00
10:53 PM,68.0,63.0,84,30.08,10.0,NNW,3.5,-,N/A,,Overcast,340,2013-01-03 03:53:00
11:53 PM,66.9,63.0,87,30.06,10.0,Calm,Calm,-,0.00,,Mostly Cloudy,0,2013-01-03 04:53:00